• Join FlightAware (Why Join?)
  • Login
  • US Flag 
12:29PM EDT


 

Airport Tracker/Info


-or-


 

Live Flight TrackerFlight Track Log ✈ RPA3436 ✈ 09-Jul-2013 ✈ KDCA - KALB

Flight Track Log - Related Links

Times and Time Zones

All times are in EDT time to prevent confusion due to time zone crossing. See the RPA3436 flight status page for this flight to view local times or setup timezone preferences in your user account.

Time Position Orientation Groundspeed Altitude Reporting Facility
EDT Latitude Longitude Course Direction KTS MPH feet Rate Location/Type
10:40AM 38.9000 -77.0667 83° East 174 200 2,100  Level Potomac TRACON
10:42AM 39.0385 -76.5038 63° Northeast  Level FlightAware Approximate
10:42AM 38.9678 -77.1533 315° West 220 253 5,900  Level Washington Center
10:43AM 39.0929 -76.3723 61° Northeast  Level FlightAware Approximate
10:43AM 39.0208 -77.0931 41° Northeast 194 223 9,200  Level Washington Center
10:44AM 39.1316 -76.2368 57° Northeast  Level FlightAware Approximate
10:44AM 39.0367 -76.9786 80° East 226 260 12,200  Level Washington Center
10:45AM 39.1617 -76.0998 83° East  Level FlightAware Approximate
10:45AM 39.0547 -76.8639 79° East 282 325 15,000  Level Washington Center
10:46AM 39.0725 -76.7439 79° East 307 353 17,100 1,980 Climbing Washington Center
10:47AM 39.0925 -76.6133 79° East 340 391 19,000 1,680 Climbing Washington Center
10:48AM 39.1122 -76.4744 80° East 372 428 20,500 1,500 Climbing Washington Center
10:49AM 39.1342 -76.3275 79° East 393 452 22,100 1,200 Climbing Washington Center
10:50AM 39.1558 -76.1725 80° East 420 483 23,000 420 Climbing Washington Center
10:51AM 39.1753 -76.0172 81° East 432 497 23,000 420 Level Washington Center
10:52AM 39.2047 -75.8700 75° East 432 497 23,900 1,140 Climbing Washington Center
10:53AM 39.2864 -75.7553 47° Northeast 410 472 25,400 1,440 Climbing Washington Center
10:54AM 39.3739 -75.6453 44° Northeast 418 481 26,800 1,320 Climbing Washington Center
10:55AM 39.4636 -75.5325 44° Northeast 424 488 28,100 1,080 Climbing Washington Center
10:56AM 39.5508 -75.4167 46° Northeast 437 503 29,000 420 Climbing Washington Center
10:57AM 39.6403 -75.2978 46° Northeast 442 509 29,000  Level Washington Center
10:58AM 39.7275 -75.1786 46° Northeast 442 509 29,000  Level Washington Center
10:59AM 39.8347 -75.0206 49° Northeast 453 521 29,000  Level New York Center
11:00AM 39.9203 -74.9011 47° Northeast 453 521 29,000 180 Level New York Center
11:01AM 40.0125 -74.7683 48° Northeast 453 521 29,400 900 Climbing New York Center
11:02AM 40.0978 -74.6486 47° Northeast 453 521 30,800 780 Climbing New York Center
11:03AM 40.1908 -74.5450 40° Northeast 438 504 31,000 60 Climbing New York Center
11:04AM 40.2753 -74.4464 42° Northeast 432 497 31,000  Level New York Center
11:05AM 40.3681 -74.3422 41° Northeast 432 497 31,000  Level New York Center
11:06AM 40.4586 -74.2406 40° Northeast 432 497 31,000 -900 Level New York Center
11:07AM 40.5489 -74.1386 41° Northeast 427 491 29,300 -2,040 Descending New York Center
11:08AM 40.6353 -74.0389 41° Northeast 417 480 27,100 -1,440 Descending New York Center
11:11AM 40.8564 -73.7847 41° Northeast 377 434 24,000 -900 Descending Boston Center
11:12AM 40.9494 -73.6658 44° Northeast 370 426 23,600 -480 Descending Boston Center
11:13AM 41.0444 -73.5575 41° Northeast 370 426 23,000 -600 Descending Boston Center
11:14AM 41.1306 -73.4844 33° Northeast 370 426 22,400 -900 Descending Boston Center
11:15AM 41.2228 -73.4225 27° Northeast 365 420 21,300 -1,260 Descending Boston Center
11:16AM 41.3169 -73.3908 14° North 345 397 19,900 -1,620 Descending Boston Center
11:17AM 41.4083 -73.4225 345° North 328 377 18,100 -960 Descending Boston Center
11:18AM 41.5042 -73.4353 354° North 334 384 18,000 -60 Descending Boston Center
11:19AM 41.5872 -73.4531 351° North 334 384 18,000  Level Boston Center
11:20AM 41.6808 -73.4658 354° North 334 384 18,000 -780 Level Boston Center
11:21AM 41.7767 -73.4811 353° North 334 384 16,500 -1,740 Descending Boston Center
11:22AM 41.8703 -73.4939 354° North 334 384 14,600 -1,980 Descending Boston Center
11:23AM 41.9411 -73.5033 354° North 327 376 13,200 -1,860 Descending Boston Center
11:24AM 42.0492 -73.5192 354° North 319 367 11,100 -1,560 Descending Boston Center
11:24AM 42.0492 -73.5192 354° North 329 379 11,200 -120 Climbing Boston Center
11:25AM 42.1367 -73.5264 356° North 317 365 11,000 -240 Descending Boston Center
11:26AM 42.2133 -73.5753 335° Northwest 309 356 10,800 -900 Descending Boston Center
11:27AM 42.2858 -73.6244 333° Northwest 285 328 9,200 -1,860 Descending Boston Center
11:28AM 42.3708 -73.6767 336° Northwest 284 327 7,100 -1,620 Descending Boston Center
11:29AM 42.4308 -73.7172 333° Northwest 273 314 6,000 -1,080 Descending Boston Center
11:30AM 42.4928 -73.7550 336° Northwest 239 275 5,100 -1,080 Descending Boston Center
11:31AM 42.5486 -73.7956 332° Northwest 224 258 3,900 -1,200 Descending Boston Center
11:32AM 42.6047 -73.8025 355° North 206 237 2,800 -1,140 Descending Boston Center